STARLINK-34769, 65094

Orbit data source: Space-Track

STARLINK-34769, 65094 is a payload satellite owned by SpaceX/Seattle (US) in LEO that was launched on Mon, 04 Aug 2025 UTC via an FALCON 9 launch vehicle from the Air Force Eastern Test Range (AFETR). Payload-class satellites include a variety of spacecraft equipped with specific instruments for various scientific and technological missions. These include communications satellites like Starlink; space stations such as the ISS; scientific satellites like the Hubble; Earth observation satellites from companies like Planet Labs, Umbra, and HawkEye 360; GPS; miniature CubeSats for education and research; and military/defense satellites.

Loading next visibility...
Identifier
65094, 2025-167S
Orbit
LEO
Country
Flag of USUS
Related business
Manufacturer
SpaceX/Seattle
Mission
Operational Commercial Communications
Bus & Motor
STARLINK V2MO, Unknown motor
Mass
575 kg wet, ~530 kg dry
Launch date (UTC)
2025-08-04 (11 months ago)
Launch vehicle
FALCON 9
Launch site
Air Force Eastern Test Range (AFETR)
Object type
Payload
Rocket body
Debris
Shape & HBR
Box + 2 Pan, 17.7 m
Radar Cross Section
36.964 m², Large (>1 m²)

Expand to show TLE details & history
Last TLE update: 6 hours ago

TLE from 6 hours ago
0 STARLINK-34769
1 65094U 25167S   26174.91668981 -.00009595  00000-0 -27321-3 0  9991
2 65094  53.1587 248.1489 0001054  61.2782 359.0628 15.34399051  5915
Epoch: 2026-06-23T22:00Z
TLE epoch observation values (Epoch: 2026-06-23T22:00:01.999Z)
Latitude
44.20268°
Longitude
52.4963°
Altitude
466.489 km
Speed
7.639 km/s
True Right ascension
19h 38m 20s
True Declination
44° 01' 25"
Sunlit
Object was in daylight at epoch
Visualization orbit readout
Latitude
Unknown
Longitude
Unknown
Altitude
Unknown
Speed
Unknown
Apparent Right ascension
Unknown
Apparent Declination
Unknown
Sunlit
N/A
Visualization observer readout
Local Sidereal Time
15:20:20
Azimuth
Unknown
Elevation
Unknown
Doppler factor
Unknown
Orbital elements
Apogee altitude
463.684 km
Perigee altitude
462.242 km
Semi-major axis
6,841.1 km
Eccentricity
0.00011
Inclination
53.1587°
RAAN
248.1489°
Arg. of periapsis
61.2782°
True anomaly
359.0626°
Mean anomaly
359.0628°
Eccentric anomaly
359.0627°
Mean motion
3.83578 °/min
Orbital period
93.85 mins
BSTAR
-0.00027321
Loading maneuver chart data...
Computing Atmospheric mass density...
Loading historical data...
Loading historical data...
Loading historical data...
Loading historical data...
Loading historical data...
Loading historical data...
Loading historical data...

Documentation

Showing up to 5 results
|